sat.trackr.live / text

‹ back to catalog

QIANFAN-51

NORAD 62252 · 2024-232R

PAYLOAD ACTIVE UNKNOWN

§ Identity

Operator
Country
PRC
Launch date
2024-12-05
Launch site
TAISC
Launch vehicle
Mass (kg)
RCS (m²)

External: N2YO · Heavens-Above · Gunter

§ Orbital elements

Epoch: 2026-05-25T03:47:54.314592Z

Period
106.59 min
Inclination
89.0100°
Eccentricity
0.0015342
Mean motion
13.51009709 rev/d
Perigee alt
1,057.1 km
Apogee alt
1,080.0 km
Semi-major
7,446.7 km
B*
1.1898e-4
RAAN
24.8124°
Arg perigee
86.9213°
Mean anomaly
273.3693°
Rev number
8,992

§ Raw data

QIANFAN-511 62252U 24232R   26145.15826753  .00000089  00000+0  11898-3 0  99912 62252  89.0100  24.8124 0015342  86.9213 273.3693 13.51009709 89928

JSON: /api/v1/satellites/62252 · /tle

For live sub-satellite position, see the globe view (requires WebGL).

§ Visibility from observer

Set your observer location to see the next 7 days of passes ≥ 10°. The values pass through the URL so the page stays shareable.

No JS? Fill the form by hand. The geolocation button needs JavaScript.